GONETS D1 2

导读 | 豆包AI

GONETS D1-2卫星是由独立国家联合体(CIS)发射的一颗通信卫星,隶属于俄罗斯“Gonets”(信使)低轨道移动卫星通信系统,该系统是俄罗斯唯一的低轨移动卫星通信系统,承担全球信息交换与通信中继任务。该卫星于1996年2月19日发射升空,主要为各类用户提供移动通信服务,支持偏远地区通信、数据传输等应用,是Gonets系统组网初期的重要卫星节点,为系统后续发展和服务运营奠定了基础。

基本信息
目录编号:
23788
目录名称:
GONETS D1 2
国际标识:
1996-009B
轨道中心:
EARTH
卫星名称:
GONETS D1 2
卫星全名:
--
卫星状态:
在轨 (已飞行10971 天)
发射日期:
1996-02-19 UTC
国别 :
俄罗斯(独联体) (CIS)
星等 :
--
轨道信息
数据来源 国际轨道数据 AOE轨道数据
星历时间 2026-03-04T04:09:55+0800
18小时前
查看轨道信息
2026-03-03T16:00:00+0800
1天前
查看轨道信息
半长轴 7787.847km 7787.859km
偏心率 0.0006317 0.0007157
轨道倾角 82.575° 82.574°
近地点辐角 316.732° 320.387°
升交点赤经 11.899° 12.223°
平近点角 43.328° 255.718°
近地点 1404.79km 1404.148km
远地点 1414.63km 1415.296km
周期 113.995分钟 113.995分钟
每日圈数 12.632133 12.632104
详细信息
使用方式:
暂无
2D轨道图
3D轨道图
轨道高度分析图
轨道倾角分析图
轨道综合分析图
查看轨道综合分析图